Temperature
23 22 22 23 24 24 25 24 24 24 25 25 25 26 26 26 26 26 26 26 25 25 24 23 22 21 20 19 19 18 17 17 16 15 15 15 14 14 14 14 13 13 13 13
23 23 24 25 25 25 24 24 24 24 25 26 25 26 27 27 27 26 27 26 26 25 24 22 21 21 20 19 19 18 17 16 16 15 15 15 14 14 14 14 13 13 13 13
23 24 26 26 25 25 24 24 23 24 24 26 26 25 27 28 27 27 26 26 26 25 24 22 21 21 20 19 18 18 17 16 16 15 15 14 14 14 14 14 14 13 13 13
24 26 26 25 25 25 24 24 25 24 24 24 25 24 26 27 26 26 26 26 26 25 24 23 22 21 20 19 18 18 17 16 16 15 15 14 14 14 14 14 14 13 13 13
24 25 25 25 25 25 24 25 25 25 24 24 25 25 26 27 26 26 26 26 26 25 24 23 22 21 20 19 18 17 17 16 15 15 15 14 14 14 14 14 14 14 13 13
25 26 26 26 26 26 25 25 26 25 25 24 26 26 26 26 27 27 27 26 26 25 24 23 22 21 20 19 18 17 17 16 15 15 14 14 14 14 14 14 14 14 14 13
25 26 27 27 26 26 26 25 23 23 23 24 26 26 26 27 28 27 27 27 26 25 24 22 21 20 19 19 18 17 16 16 15 15 15 14 14 14 14 14 14 14 14 13
25 25 26 26 26 26 26 25 23 21 22 24 26 26 26 27 27 27 26 26 26 25 24 22 21 20 19 18 18 17 16 16 15 15 15 15 14 14 14 14 14 14 14 13
25 25 27 27 27 27 26 26 26 25 24 24 25 26 27 27 26 26 26 26 25 24 23 22 21 20 19 18 18 17 17 16 15 15 15 15 14 14 14 14 14 14 14 14
26 25 26 27 27 27 26 26 26 25 23 23 24 25 25 26 26 26 26 25 25 24 23 22 21 20 19 19 18 17 17 16 16 15 15 15 15 14 14 14 14 14 14 14
27 25 25 26 25 26 26 26 26 25 25 23 23 24 27 26 26 26 26 26 25 24 23 22 21 20 19 19 18 17 17 16 16 16 15 15 15 15 14 14 14 14 14 14
27 26 25 26 27 27 27 26 26 24 24 24 23 24 27 27 27 27 26 26 25 24 23 22 21 20 19 19 18 17 17 16 16 16 15 15 15 15 15 14 14 14 14 14
25 25 24 24 25 26 26 26 26 26 25 24 23 25 27 27 27 27 26 26 25 24 23 22 21 20 20 19 18 18 17 17 16 16 15 15 15 15 15 15 14 14 14 14
24 25 24 23 24 25 26 26 26 25 24 24 24 25 26 27 26 26 26 26 25 24 23 22 21 21 20 19 18 18 18 17 17 16 16 15 15 15 15 15 15 14 14 14
26 25 26 26 26 27 26 26 26 26 25 25 25 25 26 26 26 27 27 26 25 24 23 22 22 21 20 19 19 18 18 17 17 16 16 16 16 15 15 15 15 14 14 14
26 25 25 25 26 27 26 26 26 26 26 26 25 25 26 27 27 27 26 26 25 25 24 23 22 21 20 19 19 18 18 18 17 17 16 16 16 15 15 15 15 14 14 14
25 25 24 24 25 26 25 26 26 26 26 26 25 25 26 26 26 26 26 25 25 25 24 23 22 21 21 20 19 19 18 18 17 17 16 16 16 15 15 15 15 14 14 14
24 24 24 24 24 23 25 28 27 26 26 26 25 25 25 25 26 25 25 25 24 24 24 23 23 22 21 21 20 19 18 18 17 17 17 16 16 15 15 15 15 14 14 14
26 24 23 23 23 24 26 26 26 25 25 25 25 25 25 25 25 25 24 24 24 24 23 23 22 22 21 21 20 20 19 18 18 17 17 16 16 16 15 15 15 14 14 14
25 25 23 23 22 22 24 25 26 25 23 25 24 24 24 24 22 23 23 23 23 23 23 22 22 22 22 21 20 20 19 18 18 17 17 16 16 16 15 15 15 14 14 14
24 23 22 22 22 23 24 25 25 23 22 23 23 23 22 22 22 22 22 22 22 22 22 22 22 21 21 21 20 20 19 19 18 17 17 17 16 16 16 15 15 14 14 13
23 22 22 22 22 22 23 23 22 22 22 22 22 21 21 21 21 21 21 21 21 21 21 21 21 21 21 20 20 20 19 19 18 18 17 17 16 16 15 15 14 14 13 13
23 23 22 22 22 22 22 22 21 21 20 20 20 20 20 20 20 20 20 20 20 20 20 20 20 20 20 20 19 19 19 19 18 18 17 16 16 15 15 15 14 14 13 13
22 23 22 21 22 22 22 21 20 19 19 19 19 19 18 19 19 19 19 19 19 19 19 19 19 19 19 19 19 19 19 18 18 18 17 16 16 15 15 14 14 13 13 12
19 20 20 20 20 20 20 19 19 18 18 18 18 17 17 17 18 18 18 18 18 18 18 18 18 19 19 18 18 18 18 18 17 17 17 16 15 15 15 14 14 13 13 13
19 19 18 18 19 19 18 18 17 17 17 17 16 16 16 16 17 17 17 17 17 17 17 17 17 18 18 18 18 18 18 17 17 16 16 15 15 15 15 14 14 13 13 12
Wind_Speed
9 8 9 10 10 9 5 4 2 1 3 6 8 8 8 9 10 9 9 10 10 10 11 10 10 8 7 6 5 7 5 5 4 2 1 2 2 2 2 2 3 4 4 5
9 11 12 10 9 8 5 5 3 1 4 6 8 10 10 9 11 11 10 9 10 10 11 11 10 9 7 6 5 6 6 5 5 2 0 0 1 1 1 0 1 3 4 4
10 8 10 10 8 6 5 3 4 3 6 8 10 10 8 5 6 6 6 6 6 9 12 14 11 10 8 7 6 5 5 6 5 4 1 2 1 2 1 1 1 1 2 2
7 6 8 7 6 7 3 2 4 5 6 6 7 7 7 6 7 8 8 7 5 6 9 12 11 10 9 7 6 6 6 5 5 4 3 1 1 1 1 1 1 2 2 1
4 4 6 7 5 3 2 3 6 7 8 9 10 8 3 5 6 8 9 8 6 7 10 11 11 10 9 8 7 5 6 6 5 4 3 1 2 2 2 2 2 2 1 1
3 4 3 2 2 2 3 6 9 9 8 8 8 5 2 2 4 4 6 8 8 8 10 10 10 9 8 9 7 6 6 6 5 3 3 2 1 1 2 2 2 2 1 1
4 5 4 2 3 5 6 5 3 3 3 4 4 3 1 6 7 4 3 5 8 9 10 11 11 10 9 9 8 7 7 6 5 4 3 3 2 2 2 2 1 2 2 2
4 6 7 6 6 4 7 7 3 2 4 6 6 3 4 10 8 5 2 2 5 8 9 10 11 10 10 10 9 8 8 7 6 4 3 3 3 2 0 1 2 2 2 2
2 2 6 5 5 6 5 6 7 6 9 7 4 2 4 8 7 5 4 4 5 7 9 10 11 11 10 10 9 9 8 7 7 5 4 3 2 1 0 1 1 1 1 1
2 2 3 4 3 7 7 7 5 4 5 5 5 5 2 5 5 4 5 6 6 7 9 10 10 10 10 10 10 9 8 8 7 6 5 4 2 1 1 1 1 2 3 2
7 2 4 6 7 8 7 7 6 5 5 5 5 4 3 5 4 2 3 5 7 8 8 9 10 10 9 10 10 9 8 7 7 7 5 4 4 3 3 2 2 2 3 2
4 4 4 6 6 3 5 7 7 5 6 6 7 4 3 4 4 2 2 4 6 8 8 9 10 10 9 10 10 10 9 8 7 6 5 5 5 4 4 3 3 3 3 3
8 5 3 2 1 3 6 7 7 7 8 8 8 5 1 3 3 4 4 5 5 7 8 9 9 10 10 10 9 9 9 8 8 7 6 5 6 5 4 3 2 2 2 2
5 8 7 6 6 5 6 7 7 8 8 10 11 11 7 5 3 2 4 6 7 8 9 9 9 10 10 10 9 9 9 9 9 8 7 6 5 4 3 2 1 2 1 2
5 10 11 10 10 10 10 11 10 11 12 13 13 12 11 9 7 5 2 4 6 7 9 9 10 10 10 10 10 9 9 9 9 8 7 6 5 4 3 3 2 2 1 3
6 10 13 14 13 13 14 13 13 13 13 12 12 10 9 8 7 5 4 3 4 6 8 10 11 11 12 12 11 10 10 9 9 9 8 7 5 5 4 3 2 1 1 2
8 11 12 13 14 14 13 10 8 7 7 8 9 8 8 9 8 6 4 3 3 4 6 8 10 10 11 12 12 11 10 9 9 9 8 7 6 5 4 3 3 2 3 3
13 12 9 11 13 14 8 4 4 5 6 6 7 7 8 9 8 4 5 4 3 2 3 6 8 9 10 11 11 11 10 10 9 9 8 8 7 6 5 4 3 2 2 1
10 10 9 10 12 12 8 5 5 5 5 7 8 9 10 10 8 4 8 6 4 2 2 4 6 7 9 10 11 11 11 10 9 9 8 8 8 7 6 5 4 3 2 1
6 7 8 9 12 12 6 7 6 6 4 9 9 10 11 11 7 8 11 7 5 3 1 2 4 6 7 8 9 11 11 11 10 9 8 8 8 7 7 6 4 4 3 3
6 6 8 10 12 8 6 7 5 3 6 11 11 11 11 10 9 10 11 10 7 4 1 1 3 4 5 7 9 10 10 10 10 9 8 8 8 8 6 5 4 4 3 3
11 8 9 8 10 4 8 7 6 7 10 11 11 12 12 11 12 11 10 9 8 5 2 1 2 3 4 6 8 9 9 9 10 10 9 8 8 7 7 6 4 3 3 4
8 7 6 7 6 5 6 7 8 9 11 11 12 12 13 13 12 12 10 8 7 6 4 3 3 3 4 5 7 8 7 9 10 10 10 8 8 6 7 6 5 4 3 3
11 11 11 11 9 9 8 9 8 9 10 11 11 13 13 14 14 13 11 8 7 5 5 4 4 5 5 6 6 7 8 9 11 11 10 9 8 7 6 5 4 3 2 2
13 12 13 15 12 11 9 11 12 12 13 14 13 13 13 14 14 13 12 10 7 6 5 5 5 6 7 6 7 8 9 10 11 11 10 9 8 8 7 5 3 4 4 4
13 13 12 11 11 12 12 14 15 14 14 14 15 14 14 13 13 14 13 11 9 7 7 6 7 6 6 7 8 8 10 11 11 11 10 8 8 7 8 8 6 8 7 9
Wind_Direction
176 188 208 215 213 230 271 284 285 281 261 252 259 264 253 211 199 206 207 203 197 184 165 148 140 138 148 148 135 126 128 117 104 73 21 25 24 345 50 38 42 348 347 360
177 207 214 214 217 233 263 283 305 301 275 279 277 275 262 229 203 203 213 209 197 174 157 142 146 148 161 149 140 137 132 117 110 113 15 195 53 305 106 34 62 356 358 6
188 210 212 218 217 232 251 287 297 301 285 278 278 274 262 226 202 188 221 227 204 175 162 155 160 154 158 153 148 146 132 135 125 131 82 18 353 305 42 29 63 315 360 29
205 211 201 206 223 240 251 321 303 300 294 293 286 290 270 191 176 179 199 215 209 167 149 149 153 154 160 153 149 153 138 126 117 116 90 333 334 20 22 355 26 328 58 45
192 198 202 205 212 217 266 282 279 275 282 284 278 277 285 146 172 175 179 189 188 162 149 149 151 152 156 147 144 143 131 123 115 112 136 278 13 360 1 356 4 350 38 37
163 182 208 197 175 170 221 260 264 259 265 274 273 276 301 114 105 129 158 174 173 161 150 149 145 143 142 134 138 137 131 126 130 157 169 167 134 313 311 322 350 333 332 43
172 181 177 182 209 195 225 260 303 301 258 283 305 279 263 90 87 86 125 159 164 157 151 149 147 150 144 145 150 155 149 148 157 180 189 182 174 260 280 325 339 322 346 42
191 180 180 196 231 224 221 239 248 301 305 301 286 256 115 105 100 93 86 110 144 150 152 154 153 154 153 157 162 170 163 162 168 189 192 191 186 220 327 356 327 333 354 44
310 146 158 182 236 271 254 245 265 275 286 295 301 324 112 120 129 141 164 165 169 162 154 155 156 159 161 165 170 176 170 172 175 187 193 197 189 138 57 308 299 334 332 10
320 133 188 168 242 252 278 302 296 288 306 306 313 326 65 109 111 140 173 179 181 167 162 161 159 164 167 169 172 175 177 180 176 184 198 175 175 178 186 268 354 344 331 348
313 255 191 188 217 233 222 247 262 280 282 296 311 322 35 86 91 126 185 183 177 168 167 164 160 165 166 166 169 174 180 184 178 183 187 174 179 193 214 206 211 241 263 272
319 308 257 226 214 251 275 271 278 286 296 300 297 301 90 116 132 167 192 179 172 166 166 163 162 164 168 173 176 179 183 183 176 180 180 183 182 192 216 209 208 227 237 252
341 304 306 308 260 228 250 255 267 282 286 282 285 289 197 167 176 185 190 180 171 167 169 166 165 170 174 178 181 182 182 177 169 174 185 193 197 198 201 208 204 234 250 257
303 287 287 278 283 279 269 267 267 270 274 279 281 291 298 306 304 250 200 194 182 176 175 173 171 175 176 178 182 186 180 173 171 172 187 204 207 182 179 183 193 259 282 297
278 285 295 294 290 287 284 281 272 267 270 277 288 296 306 314 315 306 253 207 192 182 182 180 178 182 179 181 184 186 180 176 176 172 184 198 201 171 166 167 202 243 276 286
284 289 296 293 292 288 281 276 270 267 269 276 285 292 309 314 312 304 291 252 214 198 194 188 185 187 185 186 188 186 179 179 177 175 180 184 184 165 167 180 198 212 251 293
286 288 293 294 299 294 283 288 289 300 309 306 304 318 334 326 314 312 315 291 245 220 205 195 191 191 190 190 188 183 179 176 178 176 173 169 171 166 172 192 193 200 230 242
267 278 286 289 292 284 288 313 323 311 317 326 328 336 335 326 319 342 355 337 300 266 222 200 193 188 189 190 180 175 171 176 181 174 169 164 167 169 173 184 187 207 239 216
252 265 273 277 281 284 296 334 341 323 335 347 344 353 353 342 326 358 360 345 320 279 254 207 197 188 189 186 177 172 174 177 174 172 170 165 165 167 172 181 187 193 207 215
249 259 264 272 280 285 324 357 351 316 317 11 14 9 358 352 342 344 350 344 336 335 287 209 197 189 186 178 171 174 175 175 174 169 168 162 160 163 170 175 179 180 180 190
272 260 254 267 274 281 355 1 345 319 7 14 13 9 2 354 345 342 347 348 343 342 326 203 193 191 183 171 168 177 178 178 168 158 157 158 156 158 160 165 172 172 171 184
297 294 287 282 279 299 28 13 17 3 358 2 3 1 354 345 338 339 341 339 334 337 323 245 211 197 179 171 174 181 179 166 152 151 156 159 156 162 159 155 165 169 174 189
291 296 303 302 312 360 19 16 13 0 350 353 353 349 344 337 333 331 329 327 324 321 308 272 228 206 197 189 186 183 169 156 150 152 157 158 154 152 150 155 165 177 189 190
300 319 311 303 303 324 336 349 357 352 343 339 342 341 338 333 329 327 324 319 317 312 304 278 242 215 212 204 196 181 165 158 155 158 161 162 162 158 151 146 153 155 165 171
305 306 298 295 305 316 332 348 347 346 340 333 334 333 331 327 324 324 320 317 313 306 296 285 259 234 222 209 198 183 171 168 168 167 168 171 167 156 144 124 96 111 80 92
278 285 287 294 315 317 325 339 341 337 332 331 330 327 325 323 321 321 318 316 310 303 296 284 271 252 235 219 207 188 179 178 177 178 178 173 162 153 146 136 109 72 101 97
Height
1470 1475 1477 1473 1472 1475 1474 1478 1482 1481 1476 1477 1477 1475 1471 1471 1473 1476 1478 1480 1483 1486 1490 1493 1497 1500 1502 1504 1505 1504 1505 1505 1505 1504 1504 1503 1503 1502 1502 1501 1499 1498 1497 1496
1473 1475 1469 1467 1469 1472 1475 1480 1482 1481 1475 1475 1476 1472 1466 1465 1468 1471 1473 1476 1479 1482 1486 1490 1494 1497 1501 1502 1503 1504 1504 1504 1504 1503 1503 1503 1503 1502 1501 1500 1499 1497 1496 1495
1473 1469 1465 1466 1470 1474 1477 1482 1483 1482 1477 1472 1474 1474 1464 1461 1464 1467 1471 1473 1475 1479 1483 1487 1491 1495 1498 1500 1502 1503 1503 1503 1503 1503 1502 1502 1502 1502 1501 1500 1499 1497 1496 1495
1467 1463 1465 1468 1472 1474 1481 1477 1477 1478 1482 1484 1477 1486 1466 1459 1462 1465 1469 1472 1474 1477 1481 1485 1489 1493 1496 1498 1500 1501 1502 1502 1502 1502 1501 1501 1502 1501 1501 1500 1499 1497 1496 1495
1470 1465 1467 1471 1471 1472 1478 1474 1475 1476 1480 1482 1476 1480 1469 1458 1463 1463 1465 1469 1472 1476 1480 1484 1487 1491 1494 1496 1498 1500 1500 1501 1500 1501 1500 1501 1501 1500 1500 1499 1498 1497 1496 1495
1466 1464 1465 1467 1469 1470 1473 1474 1473 1474 1479 1491 1475 1477 1475 1462 1461 1461 1463 1466 1470 1474 1478 1482 1486 1489 1492 1494 1496 1498 1499 1499 1499 1499 1500 1500 1500 1499 1499 1499 1498 1497 1496 1495
1469 1466 1465 1467 1470 1471 1473 1482 1494 1496 1495 1491 1468 1472 1470 1458 1457 1460 1463 1465 1469 1472 1476 1481 1484 1487 1490 1492 1494 1496 1497 1497 1498 1498 1499 1499 1499 1499 1499 1498 1498 1497 1496 1495
1474 1476 1466 1466 1469 1471 1472 1479 1498 1511 1505 1489 1471 1472 1463 1455 1458 1461 1464 1466 1468 1471 1475 1479 1482 1485 1488 1490 1492 1494 1495 1495 1496 1497 1498 1498 1498 1498 1498 1497 1497 1496 1496 1495
1472 1474 1462 1464 1465 1466 1472 1473 1471 1484 1486 1488 1477 1465 1458 1455 1458 1462 1464 1466 1469 1471 1474 1477 1480 1483 1485 1488 1489 1491 1493 1494 1494 1495 1496 1497 1497 1497 1497 1496 1496 1496 1495 1494
1464 1475 1467 1466 1468 1467 1468 1469 1474 1482 1495 1498 1485 1474 1471 1463 1461 1461 1463 1465 1468 1470 1473 1475 1478 1481 1483 1485 1487 1489 1491 1492 1493 1494 1494 1495 1495 1496 1496 1495 1495 1495 1494 1494
1462 1471 1472 1469 1472 1470 1470 1472 1473 1476 1479 1493 1498 1486 1458 1459 1459 1460 1461 1463 1465 1468 1471 1473 1476 1479 1481 1483 1485 1487 1488 1490 1491 1492 1493 1494 1494 1494 1494 1494 1494 1493 1493 1493
1463 1468 1473 1468 1461 1461 1464 1467 1471 1484 1484 1481 1488 1481 1453 1454 1456 1457 1459 1461 1463 1465 1468 1471 1473 1476 1478 1481 1482 1484 1486 1487 1488 1490 1491 1492 1492 1492 1493 1493 1493 1493 1492 1492
1468 1471 1481 1481 1475 1467 1467 1465 1466 1470 1476 1481 1487 1478 1453 1452 1454 1455 1456 1458 1460 1463 1465 1468 1470 1473 1475 1477 1480 1481 1483 1485 1486 1487 1489 1490 1490 1491 1491 1492 1492 1491 1491 1491
1472 1471 1478 1489 1479 1469 1468 1465 1464 1470 1479 1479 1474 1467 1456 1453 1452 1452 1453 1455 1457 1459 1462 1464 1467 1469 1471 1474 1476 1478 1480 1482 1483 1485 1486 1487 1489 1489 1490 1490 1490 1490 1490 1490
1469 1472 1467 1464 1461 1460 1462 1462 1462 1465 1466 1471 1466 1462 1456 1451 1450 1450 1450 1452 1453 1456 1458 1460 1463 1465 1468 1470 1472 1475 1477 1479 1480 1482 1483 1485 1486 1487 1487 1488 1488 1488 1488 1488
1468 1471 1468 1466 1460 1458 1459 1456 1456 1457 1456 1458 1458 1457 1450 1448 1448 1448 1448 1449 1450 1452 1454 1456 1458 1461 1463 1466 1468 1471 1473 1475 1477 1479 1480 1482 1483 1484 1485 1485 1485 1485 1485 1485
1470 1471 1474 1473 1462 1460 1464 1453 1451 1452 1451 1454 1458 1455 1449 1448 1447 1447 1447 1447 1448 1449 1450 1452 1454 1456 1459 1461 1464 1467 1469 1472 1474 1476 1477 1479 1480 1481 1482 1483 1483 1483 1483 1483
1469 1470 1472 1472 1470 1479 1458 1444 1445 1449 1450 1450 1450 1449 1448 1448 1446 1446 1446 1446 1446 1446 1447 1448 1450 1452 1455 1458 1460 1463 1466 1468 1471 1473 1474 1476 1477 1478 1479 1480 1480 1480 1480 1480
1462 1467 1472 1474 1475 1467 1453 1446 1447 1450 1453 1450 1450 1449 1449 1447 1445 1445 1445 1445 1445 1444 1445 1445 1447 1449 1451 1454 1456 1459 1462 1464 1467 1469 1471 1472 1474 1475 1476 1477 1477 1477 1478 1478
1460 1462 1469 1472 1477 1476 1461 1450 1447 1450 1457 1452 1451 1452 1452 1450 1451 1448 1446 1444 1443 1443 1443 1443 1444 1446 1448 1450 1452 1455 1458 1460 1462 1464 1467 1469 1470 1471 1472 1473 1474 1474 1475 1475
1465 1466 1469 1472 1472 1463 1456 1452 1450 1463 1466 1457 1456 1456 1455 1454 1454 1452 1448 1445 1444 1442 1441 1441 1442 1443 1444 1446 1449 1451 1454 1456 1458 1460 1463 1465 1466 1468 1469 1470 1471 1472 1472 1472
1467 1469 1467 1466 1470 1469 1457 1455 1461 1464 1460 1459 1459 1458 1457 1456 1454 1451 1449 1446 1444 1442 1440 1440 1440 1441 1442 1443 1445 1447 1449 1452 1454 1456 1459 1461 1463 1464 1465 1466 1468 1468 1469 1470
1464 1464 1464 1464 1466 1460 1460 1461 1463 1463 1462 1461 1460 1459 1458 1456 1453 1451 1448 1446 1443 1441 1439 1439 1438 1438 1439 1440 1442 1443 1445 1448 1450 1452 1454 1456 1458 1460 1461 1463 1464 1465 1466 1467
1465 1463 1463 1462 1459 1459 1460 1461 1462 1463 1463 1462 1460 1459 1457 1455 1452 1449 1447 1444 1442 1440 1438 1437 1436 1435 1436 1437 1438 1440 1441 1443 1446 1447 1450 1452 1454 1456 1457 1459 1460 1461 1462 1463
1472 1469 1467 1465 1462 1461 1461 1462 1462 1462 1461 1460 1459 1458 1456 1454 1451 1448 1445 1442 1440 1437 1435 1434 1433 1432 1432 1433 1434 1435 1437 1439 1441 1443 1445 1447 1449 1451 1453 1454 1456 1457 1458 1459
1472 1470 1469 1467 1466 1465 1463 1463 1462 1461 1460 1459 1457 1455 1454 1452 1448 1445 1442 1439 1437 1434 1432 1430 1429 1428 1428 1428 1429 1430 1432 1434 1435 1438 1440 1442 1444 1446 1448 1449 1451 1453 1455 1456